Home > Weather > Barquisimeto > Past weeks

Flag for Venezuela Weather for the Past 2 Weeks in Barquisimeto, Venezuela

Now
91 °F

Passing clouds.


Feels Like: 91 °F
Forecast: N/A
Wind: 16 mph from Southeast

Location: Barquisimeto Airport

Current Time: Feb 10, 2016 at 4:44:21 PM

Latest Report: Feb 10, 2016 at 4:30 PM


Visibility: N/A

Pressure: 29.98 "Hg (28.14 "Hg at 569m altitude)

Humidity: 36%

Dew point: 61 °F

Location of BarquisimetoLocation

Historic Weather in Barquisimeto — Graph

°F

Barquisimeto Temperature Yesterday

Maximum temperature yesterday: 91 °F (at 1:30 PM)
Minimum temperature yesterday: 70 °F (at 5:30 AM)
Average temperature yesterday: 81 °F

High & Low Weather Summary for the Past Weeks

 TemperatureHumidityPressure
High129 °F (Feb 2, 9:30 AM)100% (Jan 31, 6:30 AM)30.09 "Hg (Jan 31, 6:30 AM)
Low66 °F (Feb 4, 5:30 AM)13% (Feb 2, 9:30 AM)29.89 "Hg (Jan 31, 5:30 PM)
Average79 °F65%30.00 "Hg
* Reported Jan 26 3:30 PM — Feb 10 3:30 PM, Barquisimeto, Weather by CustomWeather, © 2016

Note: Actual official high and low records may vary slightly from our data, if they occured in-between our weather recording intervals... More about our weather records

Advertising

Barquisimeto Weather History for the Previous 24 Hours

 ConditionsComfort  
Time TempWeatherWind HumidityBarometerVisibility
3:30 PM
Wed, Feb 10
91 °FPassing clouds.14 mph36%29.98 "HgN/A
2:30 PM93 °FPassing clouds.13 mph34%29.98 "HgN/A
1:30 PM91 °FPassing clouds.18 mph36%30.01 "HgN/A
12:30 PM88 °FPassing clouds.16 mph43%30.04 "HgN/A
11:30 AM86 °FPassing clouds.14 mph46%30.07 "HgN/A
10:30 AM82 °FPassing clouds.9 mph55%30.09 "HgN/A
9:30 AM79 °FPassing clouds.8 mph61%30.09 "HgN/A
8:30 AM75 °FPassing clouds.3 mph74%30.09 "HgN/A
7:30 AM72 °FPassing clouds.2 mph83%30.07 "HgN/A
6:30 AM70 °FPassing clouds.2 mph88%30.04 "HgN/A
5:30 AM70 °FPassing clouds.3 mph88%30.01 "HgN/A
4:30 AM70 °FPassing clouds.N/A88%30.01 "HgN/A
1:30 AM72 °FPassing clouds.N/A88%30.04 "HgN/A
10:30 PM
Tue, Feb 9
75 °FPassing clouds.6 mph78%30.04 "HgN/A
9:30 PM77 °FPassing clouds.6 mph74%30.04 "HgN/A
8:30 PM79 °FPassing clouds.6 mph61%30.01 "HgN/A
7:30 PM82 °FPassing clouds.7 mph58%29.98 "HgN/A
6:30 PM86 °FPassing clouds.5 mph49%29.98 "HgN/A
5:30 PM88 °FPassing clouds.7 mph43%29.98 "HgN/A
4:30 PM90 °FPassing clouds.9 mph41%29.98 "HgN/A
Weather by CustomWeather, © 2016

See weather overviewHow to use our weather pages